Wind_Speed
8 8 8 7 7 6 6 7 7 8 9 9 9 9 9 9 10 10 11 11 11 11 11 10 10 10 10 10 9 9 9 9 9 9 9 9 9 9 9 9 8 8 8
7 7 7 6 5 5 5 5 6 7 8 8 8 9 9 9 9 10 11 11 10 10 10 10 10 10 9 9 9 9 9 9 9 9 9 9 9 8 8 8 8 8 8
6 6 6 5 4 4 4 3 4 5 6 7 7 8 8 8 9 10 10 10 10 9 9 9 9 9 9 8 8 8 9 9 8 8 8 8 8 8 8 8 7 7 8
6 6 5 4 4 3 2 2 3 4 5 6 7 7 7 8 8 9 9 9 9 8 9 9 9 8 8 8 8 8 8 8 8 8 8 8 8 8 8 8 7 7 7
6 6 5 4 4 3 2 1 1 2 4 5 6 6 6 7 8 8 8 8 8 8 8 9 8 8 7 7 7 7 8 8 8 8 8 8 8 8 8 8 8 7 7
5 5 5 4 3 2 2 1 1 2 3 4 5 5 6 6 7 7 7 7 8 8 8 8 7 7 7 7 7 7 7 8 8 8 8 8 8 8 8 8 7 7 7
5 5 4 4 3 3 2 1 1 1 2 3 4 5 5 5 6 6 6 7 7 7 7 7 7 7 7 6 6 7 7 7 7 7 8 8 8 8 7 7 7 7 7
5 5 4 4 3 3 2 2 1 0 1 2 2 3 4 4 5 5 6 6 6 6 6 6 6 6 6 6 6 6 6 7 7 7 7 7 7 7 7 7 7 7 7
6 6 5 5 4 3 2 2 2 1 1 1 1 2 2 3 4 4 5 5 5 5 5 5 5 5 5 5 5 6 6 6 6 7 7 7 7 7 6 6 7 6 6
6 6 5 5 4 3 3 3 2 2 1 0 1 1 1 2 3 3 4 4 4 5 5 5 4 4 5 5 5 5 5 5 5 6 6 6 6 6 6 6 6 6 6
6 6 6 5 5 4 3 3 2 2 2 1 1 1 1 2 2 3 4 4 4 4 4 4 4 4 4 4 4 4 4 4 4 5 5 5 5 6 6 6 6 6 6
7 6 5 5 5 5 4 3 3 2 2 1 1 1 1 1 2 3 3 3 3 3 3 3 3 3 3 3 3 3 3 3 4 4 5 5 5 5 5 6 5 6 5
7 7 6 6 6 5 5 4 3 2 2 1 1 1 1 1 2 2 2 2 2 2 3 2 2 3 3 3 3 3 3 3 4 4 4 4 5 4 4 5 5 5 4
7 7 7 7 6 6 5 4 3 2 2 2 2 1 1 1 1 1 1 2 2 2 2 2 2 3 3 3 3 3 3 3 3 3 4 4 4 4 4 4 4 4 4
8 8 7 8 7 6 5 5 4 3 3 3 2 2 1 0 1 1 1 1 1 1 1 1 1 1 2 2 3 3 3 3 3 3 3 3 3 3 4 4 3 3 3
9 8 8 8 8 7 6 5 4 4 4 3 2 2 1 0 0 0 1 1 1 0 0 0 0 0 0 1 2 2 2 2 3 2 2 3 3 3 3 3 3 2 2
9 9 9 8 8 7 6 6 5 4 4 3 2 2 2 1 1 1 1 1 1 1 1 1 1 0 0 1 1 1 2 2 2 2 2 3 3 3 3 3 3 2 2
10 10 9 9 9 8 6 6 6 5 4 4 3 3 3 3 3 2 2 2 2 2 2 2 2 1 1 1 1 2 2 2 2 2 2 3 3 3 3 3 3 3 3
10 10 10 9 9 8 7 6 6 6 5 4 4 3 3 3 4 4 4 4 4 3 3 3 3 3 3 2 2 2 2 2 3 2 2 3 3 3 3 4 4 4 4
10 10 10 10 9 9 8 7 7 7 6 5 5 5 4 4 4 5 5 5 5 5 4 4 4 4 4 4 4 4 4 4 4 4 4 4 4 4 5 5 5 5 5
11 11 11 10 10 9 9 8 7 7 6 5 5 6 5 5 5 6 6 7 6 6 6 5 5 5 5 6 6 6 6 6 6 6 7 6 7 6 6 6 7 7 7
11 12 12 11 11 10 10 10 8 7 7 6 6 7 7 7 7 7 7 7 7 8 7 7 7 7 7 7 8 8 8 8 8 8 8 8 8 9 8 9 8 9 9
12 13 13 12 11 11 10 10 10 9 8 7 7 8 8 8 8 8 8 8 8 8 8 8 8 8 8 9 9 9 9 10 10 10 11 11 11 11 11 11 11 11 11
13 14 14 13 13 12 12 11 11 10 9 9 7 7 8 8 9 9 9 8 8 9 9 9 10 10 10 10 10 11 11 11 11 11 12 12 13 13 14 13 14 13 13
14 14 14 14 13 13 12 12 11 11 11 10 9 9 9 9 9 9 9 9 9 9 9 10 10 11 11 11 11 12 12 12 13 13 13 14 14 14 15 15 15 15 16
14 14 13 14 13 13 12 12 12 13 13 12 10 10 10 9 9 9 8 9 9 9 9 10 11 11 12 13 13 13 13 14 15 15 15 15 16 16 16 17 17 17 17
Wind_Direction
80 81 83 81 82 85 93 101 101 102 109 109 109 109 107 106 105 103 103 103 101 100 98 94 89 86 83 80 79 78 78 74 72 70 67 65 63 63 64 63 63 63 64
76 80 82 79 73 79 88 93 101 107 113 113 113 114 112 109 108 105 104 102 102 100 97 93 90 85 83 81 79 78 76 74 72 69 67 65 62 62 63 61 62 62 63
72 73 76 72 67 73 88 96 107 110 116 115 115 112 110 108 108 104 103 103 102 101 98 94 90 85 83 81 78 77 76 73 71 68 64 63 62 61 59 57 59 60 61
66 65 68 68 57 58 83 107 115 112 116 114 114 110 110 108 104 105 106 105 104 102 99 95 90 86 84 81 79 78 76 72 69 67 65 65 63 60 58 55 56 59 62
63 62 65 59 47 45 48 96 119 115 111 112 111 110 109 110 109 109 110 109 107 103 98 97 91 88 85 83 81 77 76 72 68 68 66 66 64 60 58 57 58 59 61
58 60 58 54 47 45 39 34 89 107 115 121 117 114 111 113 115 113 111 108 103 102 99 95 90 88 86 86 82 78 78 75 73 70 67 67 66 63 62 59 57 55 59
54 55 52 48 39 28 16 23 86 81 119 123 117 115 116 119 118 114 112 110 104 101 100 93 91 89 89 88 83 78 76 74 74 71 67 66 65 64 62 57 53 50 55
47 44 43 36 29 22 19 6 345 88 137 131 126 123 118 123 126 116 111 109 107 104 99 94 91 90 91 91 88 80 73 74 74 70 67 65 62 61 59 56 51 51 56
43 40 37 34 29 23 4 349 344 334 149 152 135 129 120 119 123 118 111 110 111 106 102 98 95 92 86 89 90 82 74 75 72 69 67 63 58 56 57 54 51 54 58
37 36 31 29 16 4 351 334 331 334 323 230 172 141 119 116 119 116 113 114 117 113 106 101 99 95 87 86 85 79 73 70 71 68 64 61 58 55 55 54 53 57 60
30 30 28 22 15 360 341 324 326 323 299 280 225 186 150 132 129 122 123 125 124 118 112 107 100 104 93 87 81 74 69 70 69 66 59 60 60 56 54 56 57 59 62
21 21 17 10 4 357 343 323 318 318 300 271 243 204 136 122 136 121 124 127 127 118 115 111 106 98 93 84 78 69 65 71 74 68 57 56 57 56 58 58 58 60 63
16 12 10 3 356 355 350 337 321 307 305 305 322 324 47 95 114 115 118 128 131 122 116 109 111 99 91 80 67 61 69 70 70 72 60 56 54 53 58 55 55 58 60
12 8 4 359 355 354 352 343 335 322 321 330 320 325 8 52 127 123 108 111 127 115 106 98 104 95 86 72 58 53 59 62 72 72 62 55 52 51 53 53 55 51 54
9 6 2 356 354 354 350 343 339 340 332 321 304 310 319 17 135 129 103 104 116 123 112 99 99 77 66 67 55 47 53 62 61 66 61 52 47 46 47 49 52 42 45
13 9 2 354 350 347 346 342 339 336 330 314 290 291 294 230 130 199 191 217 207 210 238 246 121 95 39 42 34 28 38 51 52 57 55 49 40 36 35 32 29 35 32
10 8 3 359 351 343 341 337 332 330 327 317 283 270 268 263 262 278 263 283 267 266 297 295 286 191 301 351 357 7 21 25 43 31 27 25 20 15 13 8 6 3 360
6 7 4 2 354 348 338 333 323 316 306 300 290 277 270 271 280 287 286 290 277 280 295 306 296 285 272 291 324 341 344 346 0 3 357 355 356 349 346 345 339 335 332
2 5 5 4 356 351 342 329 326 315 302 290 285 280 273 275 277 278 278 281 280 279 280 290 288 286 276 281 292 298 308 319 320 322 327 326 325 322 321 318 324 319 312
356 360 2 3 359 357 351 340 336 327 313 291 282 277 274 274 283 285 279 274 274 276 275 279 287 284 280 278 278 282 290 293 298 301 300 298 299 301 302 301 306 304 301
350 350 353 355 354 349 347 340 333 326 318 298 286 282 281 278 281 287 286 275 271 276 277 276 279 279 278 276 276 281 286 288 289 295 296 295 291 292 296 298 297 296 295
340 342 343 340 341 340 341 342 339 328 316 302 293 288 285 279 277 284 281 277 272 273 275 278 277 279 275 276 276 278 283 286 289 289 290 293 293 291 292 294 292 288 287
330 332 334 333 332 330 335 337 336 331 319 305 290 289 283 281 281 279 278 274 268 268 269 273 278 281 280 279 281 283 285 287 290 288 288 289 291 290 289 288 290 287 287
323 325 327 328 326 325 326 325 327 327 325 321 305 296 290 281 282 281 276 271 267 266 265 268 272 277 279 279 282 283 283 284 286 288 289 288 288 289 288 285 283 283 286
316 319 322 323 322 320 320 320 320 319 317 318 308 300 299 289 282 285 276 271 270 266 265 267 271 274 277 280 282 281 282 285 287 290 290 288 290 290 290 287 285 284 287
312 315 318 318 318 318 318 317 316 316 315 315 311 305 303 298 284 281 278 273 271 269 269 269 271 274 274 278 280 279 281 285 287 289 289 289 289 288 288 288 286 284 285
Height
5892 5892 5892 5893 5893 5893 5892 5892 5892 5892 5892 5892 5892 5892 5892 5893 5893 5893 5894 5894 5895 5895 5895 5896 5896 5897 5897 5897 5897 5897 5897 5897 5897 5897 5897 5897 5897 5897 5897 5897 5897 5897 5897
5894 5894 5894 5894 5895 5895 5894 5894 5894 5893 5894 5894 5894 5894 5894 5894 5895 5895 5896 5896 5896 5897 5897 5898 5898 5898 5898 5898 5899 5899 5899 5898 5899 5899 5899 5899 5899 5898 5898 5898 5898 5898 5898
5896 5895 5896 5896 5896 5896 5896 5896 5895 5895 5895 5895 5895 5895 5896 5896 5896 5897 5897 5898 5898 5899 5899 5899 5900 5900 5900 5900 5900 5900 5900 5900 5900 5900 5900 5900 5900 5900 5900 5900 5900 5900 5899
5898 5897 5898 5898 5898 5898 5898 5897 5897 5897 5897 5897 5897 5897 5897 5897 5898 5898 5899 5899 5900 5900 5900 5901 5901 5901 5902 5902 5902 5902 5902 5902 5902 5901 5902 5902 5902 5901 5901 5901 5901 5901 5901
5899 5899 5899 5899 5899 5899 5899 5899 5899 5899 5899 5898 5898 5899 5899 5899 5899 5900 5900 5900 5901 5902 5902 5902 5903 5903 5903 5903 5903 5903 5903 5903 5903 5903 5903 5903 5903 5903 5903 5903 5902 5902 5902
5901 5900 5900 5900 5900 5901 5901 5901 5900 5900 5900 5900 5900 5900 5900 5900 5901 5901 5902 5902 5902 5903 5903 5904 5904 5904 5904 5904 5904 5905 5905 5904 5905 5905 5904 5904 5904 5904 5904 5904 5904 5904 5904
5902 5902 5902 5902 5902 5902 5902 5902 5902 5902 5901 5901 5901 5902 5902 5902 5902 5902 5903 5904 5904 5904 5905 5905 5905 5905 5905 5905 5906 5906 5906 5906 5906 5906 5906 5906 5906 5906 5906 5905 5905 5905 5905
5904 5903 5903 5903 5903 5903 5903 5903 5903 5903 5903 5903 5903 5903 5903 5903 5904 5904 5904 5905 5905 5906 5906 5906 5906 5906 5906 5906 5907 5907 5907 5907 5907 5907 5907 5907 5907 5907 5907 5907 5907 5906 5906
5905 5905 5904 5904 5904 5904 5904 5904 5904 5904 5904 5904 5904 5904 5904 5905 5905 5905 5905 5906 5906 5907 5907 5907 5908 5908 5908 5908 5908 5908 5908 5908 5908 5908 5908 5908 5908 5908 5908 5908 5908 5907 5907
5907 5906 5906 5906 5905 5905 5905 5905 5905 5905 5905 5905 5905 5905 5906 5906 5906 5906 5907 5907 5907 5908 5908 5908 5909 5909 5909 5909 5909 5909 5909 5909 5910 5910 5910 5909 5909 5909 5909 5909 5909 5909 5908
5908 5908 5907 5907 5907 5906 5906 5906 5906 5906 5906 5906 5906 5906 5906 5907 5907 5907 5908 5908 5909 5909 5909 5910 5910 5910 5910 5910 5910 5910 5910 5910 5911 5911 5911 5911 5911 5910 5910 5910 5910 5910 5910
5910 5909 5908 5908 5908 5907 5907 5906 5906 5906 5906 5906 5907 5907 5907 5908 5908 5908 5909 5909 5910 5910 5910 5910 5911 5911 5911 5911 5911 5911 5911 5911 5912 5912 5912 5912 5912 5912 5911 5911 5911 5911 5911
5911 5910 5910 5909 5908 5908 5908 5907 5907 5907 5907 5907 5907 5907 5908 5908 5908 5909 5909 5910 5910 5911 5911 5911 5912 5912 5912 5912 5912 5912 5912 5912 5912 5912 5912 5913 5913 5913 5912 5912 5912 5912 5912
5912 5911 5911 5910 5909 5909 5908 5908 5908 5908 5908 5908 5908 5908 5908 5909 5909 5910 5910 5911 5911 5912 5912 5912 5913 5913 5913 5913 5913 5913 5913 5913 5913 5913 5913 5913 5913 5913 5913 5913 5913 5913 5912
5913 5912 5912 5911 5910 5910 5909 5909 5909 5909 5909 5908 5908 5909 5909 5910 5910 5910 5911 5911 5912 5912 5913 5913 5913 5913 5913 5914 5914 5914 5914 5914 5914 5914 5914 5914 5914 5914 5914 5914 5913 5913 5913
5914 5913 5912 5911 5911 5910 5910 5909 5909 5909 5909 5908 5908 5909 5909 5910 5911 5911 5912 5912 5913 5913 5913 5914 5914 5914 5914 5914 5914 5914 5914 5914 5914 5914 5914 5914 5914 5914 5914 5914 5914 5913 5913
5915 5914 5913 5912 5911 5910 5910 5910 5909 5909 5908 5908 5908 5909 5910 5910 5911 5911 5912 5913 5913 5913 5914 5914 5914 5915 5914 5915 5915 5915 5915 5915 5915 5915 5915 5915 5914 5914 5914 5914 5914 5913 5913
5916 5914 5913 5912 5911 5911 5910 5910 5909 5909 5909 5908 5908 5909 5910 5910 5911 5911 5912 5913 5913 5913 5914 5914 5914 5915 5915 5915 5915 5915 5915 5915 5915 5915 5915 5915 5915 5914 5914 5914 5913 5913 5913
5916 5915 5914 5913 5912 5911 5910 5910 5909 5909 5909 5909 5909 5909 5910 5910 5911 5911 5912 5912 5913 5913 5913 5914 5914 5914 5915 5915 5915 5915 5915 5915 5915 5915 5915 5915 5914 5914 5914 5913 5913 5913 5912
5917 5916 5914 5913 5912 5911 5910 5910 5909 5909 5908 5908 5908 5909 5909 5910 5910 5911 5911 5912 5912 5913 5913 5913 5914 5914 5914 5914 5914 5915 5915 5915 5915 5914 5914 5914 5914 5913 5913 5912 5912 5912 5912
5917 5916 5915 5913 5912 5911 5910 5910 5909 5909 5908 5908 5908 5909 5909 5909 5910 5910 5911 5911 5911 5912 5912 5912 5913 5913 5913 5913 5914 5914 5914 5914 5914 5913 5913 5913 5913 5912 5912 5911 5911 5911 5911
5917 5916 5915 5914 5913 5911 5910 5910 5909 5909 5908 5907 5907 5908 5908 5908 5909 5909 5909 5910 5910 5910 5911 5911 5911 5912 5912 5912 5912 5912 5912 5913 5912 5912 5912 5911 5911 5911 5910 5910 5910 5909 5909
5917 5915 5914 5913 5912 5911 5910 5910 5909 5908 5908 5907 5907 5907 5907 5907 5907 5908 5908 5908 5909 5909 5909 5910 5910 5910 5910 5911 5911 5911 5911 5911 5910 5910 5910 5909 5909 5908 5908 5907 5907 5907 5906
5916 5915 5914 5913 5912 5910 5909 5909 5908 5907 5907 5906 5906 5906 5906 5906 5905 5906 5906 5906 5907 5907 5907 5908 5908 5908 5909 5909 5909 5909 5908 5908 5908 5908 5908 5907 5906 5905 5904 5904 5904 5903 5903
5914 5914 5913 5912 5910 5909 5908 5907 5907 5906 5906 5905 5905 5904 5904 5903 5903 5903 5903 5904 5904 5905 5905 5905 5906 5906 5906 5906 5906 5906 5906 5905 5905 5905 5905 5904 5904 5903 5902 5901 5900 5900 5900
5913 5912 5911 5910 5909 5908 5907 5906 5905 5904 5903 5903 5903 5903 5902 5902 5901 5901 5901 5902 5902 5902 5903 5903 5903 5903 5903 5903 5903 5903 5903 5903 5902 5902 5902 5901 5900 5900 5899 5898 5897 5896 5896